FW7184 Weather Reports


Display with metric or nautical units.
time (UTC)temp
F
wind
direction
speed
MPH
gust
MPH
rain 1hr
in
rain 24hr
in
rain mn
in
humidity
%
barometer
mb
20260903170557 81 213 2.0 2.0 0.00 0.35 0.35 78 1014.4
20260903170053 81 351 1.0 1.0 0.00 0.35 0.35 79 1014.4
20260903165550 80 260 1.0 1.0 0.00 0.35 0.35 79 1014.4
20260903165047 79 209 0.0 0.0 0.00 0.35 0.35 81 1014.4
20260903164546 80 206 1.0 1.0 0.00 0.35 0.35 82 1014.5
20260903164037 79 214 0.0 0.0 0.00 0.35 0.35 84 1014.4
20260903163537 79 0 2.0 2.0 0.00 0.35 0.35 84 1014.7
20260903163033 78 209 0.0 1.0 0.00 0.35 0.35 86 1014.4
20260903162529 77 194 1.0 1.0 0.00 0.35 0.35 86 1014.5
20260903162025 77 202 0.0 0.0 0.00 0.35 0.35 88 1014.9
20260903161520 76 207 0.0 0.0 0.00 0.35 0.35 89 1014.9
20260903161016 77 136 0.0 0.0 0.00 0.35 0.35 88 1014.8
20260903160515 77 209 0.0 0.0 0.00 0.35 0.35 88 1014.9
20260903160009 77 199 0.0 0.0 0.00 0.35 0.35 88 1015.0
20260903155509 77 159 1.0 1.0 0.00 0.35 0.35 88 1015.1
20260903155004 77 201 0.0 0.0 0.00 0.35 0.35 89 1015.2
20260903154500 76 209 0.0 1.0 0.00 0.35 0.35 90 1015.5
20260903153955 75 201 0.0 0.0 0.00 0.35 0.35 91 1015.3
20260903153451 75 210 0.0 1.0 0.00 0.35 0.35 92 1015.2
20260903152947 75 207 0.0 0.0 0.00 0.35 0.35 92 1015.2
20260903152443 74 164 0.0 0.0 0.00 0.35 0.35 93 1015.2
20260903151939 74 194 2.0 2.0 0.00 0.35 0.35 93 1015.3
20260903151439 74 146 0.0 1.0 0.00 0.35 0.35 94 1015.3
20260903150934 73 210 0.0 0.0 0.00 0.35 0.35 94 1015.4
20260903150434 73 204 2.0 2.0 0.00 0.35 0.35 95 1015.4
20260903145934 73 204 0.0 0.0 0.00 0.35 0.35 98 1015.6
20260903145429 72 209 0.0 0.0 0.00 0.35 0.35 98 1015.3
20260903144924 71 205 0.0 0.0 0.00 0.35 0.35 99 1015.3
20260903144423 71 201 0.0 0.0 0.00 0.35 0.35 99 1015.4
20260903143919 71 198 1.0 1.0 0.00 0.35 0.35 99 1015.4
20260903143416 70 200 1.0 1.0 0.00 0.35 0.35 99 1015.6
20260903142911 70 207 0.0 0.0 0.00 0.35 0.35 99 1015.5
20260903142407 70 199 0.0 1.0 0.00 0.35 0.35 99 1015.6
20260903141903 70 210 0.0 0.0 0.00 0.35 0.35 99 1015.6
20260903141358 70 191 0.0 0.0 0.00 0.35 0.35 99 1015.5
20260903140854 70 201 0.0 0.0 0.00 0.35 0.35 99 1015.6
20260903140349 70 212 0.0 0.0 0.00 0.35 0.35 99 1015.4
20260903135844 69 212 0.0 0.0 0.00 0.35 0.35 99 1015.5
20260903135339 69 212 0.0 0.0 0.00 0.35 0.35 99 1015.3
20260903134838 69 213 0.0 0.0 0.00 0.35 0.35 99 1015.6
20260903134333 69 207 0.0 1.0 0.00 0.35 0.35 99 1015.6
20260903133831 69 208 0.0 0.0 0.00 0.35 0.35 99 1015.4
20260903133328 69 206 0.0 0.0 0.00 0.35 0.35 99 1015.6
20260903132828 69 198 0.0 0.0 0.00 0.35 0.35 99 1015.4
20260903132324 69 207 0.0 0.0 0.00 0.35 0.35 99 1015.5
20260903131818 70 207 0.0 0.0 0.00 0.35 0.35 99 1015.4
20260903131318 69 174 1.0 1.0 0.00 0.35 0.35 99 1015.5
20260903130813 70 212 0.0 0.0 0.00 0.35 0.35 99 1015.4
20260903130313 69 213 0.0 0.0 0.00 0.35 0.35 99 1015.5
20260903125811 69 209 0.0 0.0 0.00 0.35 0.35 99 1015.3
20260903125307 69 233 0.0 1.0 0.00 0.35 0.35 99 1015.5
20260903124806 69 191 0.0 0.0 0.00 0.35 0.35 99 1015.8
20260903124301 69 221 0.0 0.0 0.00 0.35 0.35 99 1015.8
20260903123759 69 206 0.0 0.0 0.00 0.35 0.35 99 1015.5
20260903123259 69 213 0.0 0.0 0.00 0.35 0.35 99 1015.9
20260903122758 69 204 0.0 0.0 0.00 0.35 0.35 99 1015.8
20260903122253 69 210 0.0 0.0 0.00 0.35 0.35 99 1016.1
20260903121751 69 207 0.0 0.0 0.00 0.35 0.35 99 1015.7
20260903121247 69 207 0.0 0.0 0.00 0.35 0.35 99 1015.7
20260903120742 69 209 0.0 0.0 0.00 0.35 0.35 99 1015.8
20260903120236 68 210 0.0 0.0 0.00 0.35 0.35 99 1016.1
20260903115735 68 210 0.0 0.0 0.00 0.35 0.35 99 1016.2
20260903115230 68 203 0.0 0.0 0.00 0.35 0.35 99 1016.3
20260903114724 68 209 0.0 0.0 0.00 0.35 0.35 99 1016.3
20260903114220 68 198 0.0 0.0 0.00 0.35 0.35 99 1016.0
20260903113715 68 204 0.0 0.0 0.00 0.35 0.35 99 1015.9
20260903113211 68 202 0.0 0.0 0.00 0.35 0.35 99 1015.9
20260903112707 68 203 0.0 0.0 0.00 0.35 0.35 99 1016.2
20260903112202 68 207 0.0 0.0 0.00 0.35 0.35 99 1015.9
20260903111700 68 207 0.0 0.0 0.00 0.35 0.35 99 1016.0
20260903111156 68 207 0.0 0.0 0.00 0.35 0.35 99 1015.9
20260903110653 68 205 0.0 0.0 0.00 0.35 0.35 99 1016.0
20260903110148 68 205 0.0 0.0 0.00 0.35 0.35 99 1016.0
20260903105642 68 206 0.0 0.0 0.00 0.35 0.35 99 1016.0
20260903105137 67 205 0.0 0.0 0.00 0.35 0.35 99 1015.9
20260903104637 68 205 0.0 0.0 0.00 0.35 0.35 99 1016.1
20260903104133 68 211 0.0 0.0 0.00 0.35 0.35 99 1015.9
20260903103628 68 205 0.0 0.0 0.00 0.35 0.35 99 1015.6
20260903103125 68 201 0.0 0.0 0.00 0.35 0.35 99 1015.8
20260903102619 68 205 0.0 0.0 0.00 0.35 0.35 99 1016.3
20260903102118 68 205 0.0 0.0 0.00 0.35 0.35 99 1016.2
20260903101618 68 205 0.0 0.0 0.00 0.35 0.35 99 1016.1
20260903101114 68 205 0.0 0.0 0.00 0.35 0.35 99 1016.1
20260903100609 68 199 0.0 0.0 0.00 0.35 0.35 99 1015.9
20260903100108 68 202 0.0 0.0 0.00 0.35 0.35 99 1015.6
20260903095606 68 197 0.0 0.0 0.00 0.35 0.35 99 1015.8
20260903095105 68 207 0.0 0.0 0.00 0.35 0.35 99 1015.5
20260903094606 68 208 0.0 0.0 0.00 0.35 0.35 99 1015.7
20260903094101 68 197 1.0 2.0 0.00 0.35 0.35 99 1015.7
20260903093556 68 198 0.0 0.0 0.00 0.35 0.35 99 1015.4
20260903093052 68 207 0.0 0.0 0.00 0.35 0.35 99 1015.3
20260903092551 68 186 0.0 0.0 0.00 0.35 0.35 99 1015.8
20260903092046 68 192 0.0 1.0 0.00 0.35 0.35 99 1015.7
20260903091544 68 165 0.0 1.0 0.00 0.35 0.35 99 1015.6
20260903091039 68 202 0.0 0.0 0.00 0.35 0.35 99 1015.8
20260903090535 68 205 0.0 0.0 0.00 0.35 0.35 99 1015.8
20260903090033 67 194 0.0 0.0 0.00 0.35 0.35 99 1015.7
20260903085532 67 213 0.0 0.0 0.00 0.35 0.35 99 1016.0
20260903085028 67 204 0.0 0.0 0.00 0.35 0.35 99 1015.3
20260903084526 67 205 0.0 0.0 0.00 0.35 0.35 99 1015.5
20260903084020 67 193 0.0 1.0 0.00 0.35 0.35 99 1015.5
20260903083516 67 205 0.0 0.0 0.00 0.35 0.35 99 1015.6
20260903083010 67 214 0.0 0.0 0.00 0.35 0.35 99 1015.8
20260903082504 67 188 0.0 0.0 0.00 0.35 0.35 99 1015.8
20260903082000 67 198 0.0 0.0 0.00 0.35 0.35 99 1016.0
20260903081455 67 208 0.0 0.0 0.00 0.35 0.35 99 1016.3
20260903080951 67 206 0.0 0.0 0.00 0.35 0.35 99 1016.4
20260903080447 67 206 0.0 0.0 0.00 0.35 0.35 99 1016.5
20260903075943 67 206 0.0 0.0 0.00 0.35 0.35 99 1016.4
20260903075439 67 206 0.0 0.0 0.00 0.35 0.35 99 1016.5
20260903074933 67 206 0.0 0.0 0.00 0.35 0.35 99 1016.5
20260903074432 67 199 0.0 0.0 0.00 0.35 0.35 99 1016.6
20260903073928 67 204 0.0 0.0 0.00 0.35 0.35 99 1016.4
20260903073423 67 200 0.0 0.0 0.00 0.35 0.35 99 1016.2
20260903072918 67 206 0.0 0.0 0.00 0.35 0.35 99 1016.5
20260903072414 67 210 0.0 0.0 0.00 0.35 0.35 99 1016.3
20260903071911 67 208 0.0 0.0 0.00 0.35 0.35 99 1016.4
20260903071407 67 198 0.0 0.0 0.07 0.35 0.35 99 1016.3
20260903070903 67 194 0.0 0.0 0.07 0.35 0.35 99 1016.0
20260903070357 67 207 0.0 0.0 0.00 0.34 0.34 99 1016.4
20260903065852 67 200 0.0 0.0 0.00 0.34 0.34 99 1016.4
20260903065351 67 203 0.0 0.0 0.00 0.34 0.34 99 1016.7
20260903064850 67 205 0.0 0.0 0.00 0.34 0.34 99 1016.9
20260903064346 67 198 0.0 0.0 0.05 0.34 0.34 99 1016.6
20260903063842 67 211 0.0 0.0 0.00 0.33 0.33 99 1016.7
20260903063337 67 203 0.0 0.0 0.00 0.33 0.33 99 1016.7
20260903062833 67 203 0.0 0.0 0.00 0.33 0.33 99 1016.5
20260903062332 67 205 0.0 0.0 0.00 0.33 0.33 99 1016.7
20260903061829 67 205 0.0 0.0 0.00 0.33 0.33 99 1016.8
20260903061327 67 206 0.0 0.0 0.00 0.33 0.33 99 1016.9
20260903060824 67 212 0.0 0.0 0.00 0.33 0.33 99 1017.2
20260903060323 67 207 0.0 0.0 0.00 0.33 0.33 99 1017.0
20260903055821 67 205 0.0 0.0 0.00 0.33 0.33 99 1017.4
20260903055314 67 202 0.0 0.0 0.07 0.33 0.33 99 1017.5
20260903054809 67 207 0.0 0.0 0.07 0.33 0.33 99 1017.9
20260903054308 67 207 0.0 0.0 0.00 0.32 0.32 99 1017.9
20260903053805 67 206 0.0 0.0 0.05 0.32 0.32 99 1017.9
20260903053300 66 206 0.0 0.0 0.07 0.31 0.31 99 1017.6
20260903052755 67 199 0.0 0.0 0.12 0.31 0.31 99 1017.3
20260903052251 67 182 1.0 2.0 0.12 0.30 0.30 99 1017.2
20260903051746 67 203 0.0 0.0 0.19 0.29 0.29 99 1018.0
20260903051242 67 206 0.0 0.0 0.31 0.28 0.28 99 1018.3
20260903050737 66 203 0.0 0.0 0.24 0.25 0.25 99 1018.9
20260903050237 66 208 0.0 0.0 0.28 0.23 0.23 99 1019.1
20260903045731 66 197 0.0 0.0 1.02 0.20 0.20 99 1019.2
20260903045227 66 206 0.0 0.0 0.92 0.16 0.16 99 1019.7
20260903044723 66 213 0.0 0.0 0.07 0.02 0.02 99 1019.5
20260903044218 66 208 0.0 0.0 0.05 0.01 0.01 99 1019.4
20260903043716 66 207 0.0 0.0 0.05 0.01 0.01 99 1019.0
20260903043215 66 202 0.0 0.0 0.00 0.00 0.00 99 1018.9
20260903042714 66 204 0.0 0.0 0.00 0.00 0.00 99 1019.0
20260903042209 66 206 0.0 0.0 0.00 0.00 0.00 99 1019.1
20260903041706 66 206 0.0 0.0 0.00 0.00 0.00 99 1019.1
20260903041201 66 211 0.0 0.0 0.00 0.00 0.00 99 1018.8
20260903040700 66 209 0.0 0.0 0.00 0.00 0.00 99 1018.9
20260903040156 66 204 0.0 0.0 0.00 0.00 0.00 99 1019.1
20260903035651 66 206 0.0 0.0 0.00 0.82 0.82 99 1019.4
20260903035142 66 206 0.0 0.0 0.00 0.82 0.82 99 1019.3
20260903034642 66 208 0.0 0.0 0.00 0.82 0.82 99 1019.1
20260903034137 66 209 0.0 0.0 0.00 0.82 0.82 99 1019.3
20260903033632 66 208 0.0 0.0 0.00 0.82 0.82 99 1019.1
20260903033126 66 207 0.0 0.0 0.00 0.82 0.82 99 1019.3
20260903032621 66 206 0.0 0.0 0.00 0.82 0.82 99 1019.1
20260903032117 66 206 0.0 0.0 0.00 0.82 0.82 99 1018.7
20260903031612 66 205 0.0 0.0 0.00 0.82 0.82 99 1018.9
20260903031107 66 206 0.0 0.0 0.00 0.82 0.82 99 1018.7
20260903030603 66 209 0.0 0.0 0.00 0.82 0.82 99 1018.5
20260903030058 66 204 0.0 0.0 0.00 0.82 0.82 99 1018.8
20260903025553 66 216 0.0 0.0 0.00 0.82 0.82 99 1019.2
20260903025049 65 207 0.0 0.0 0.00 0.82 0.82 99 1019.2
20260903024548 65 209 0.0 0.0 0.00 0.82 0.82 99 1019.1
20260903024043 65 208 0.0 0.0 0.00 0.82 0.82 99 1019.2
20260903023539 65 205 0.0 0.0 0.00 0.82 0.82 99 1019.3
20260903023034 65 208 0.0 0.0 0.00 0.82 0.82 99 1019.2
20260903022533 65 206 0.0 0.0 0.00 0.82 0.82 99 1019.4
20260903022032 65 203 0.0 0.0 0.00 0.82 0.82 99 1019.2
20260903021527 65 206 0.0 0.0 0.00 0.82 0.82 99 1019.4
20260903021022 65 202 0.0 0.0 0.00 0.82 0.82 99 1019.6
20260903020518 65 204 0.0 0.0 0.00 0.82 0.82 99 1019.7
20260903020017 65 210 0.0 0.0 0.00 0.82 0.82 99 1019.7
20260903015513 65 206 0.0 0.0 0.00 0.82 0.82 99 1019.6
20260903015008 65 205 0.0 0.0 0.00 0.82 0.82 99 1019.7
20260903014502 65 212 0.0 0.0 0.00 0.82 0.82 99 1019.5
20260903013957 65 205 0.0 0.0 0.00 0.82 0.82 99 1019.6
20260903013456 65 207 0.0 0.0 0.00 0.82 0.82 99 1019.7
20260903012956 65 206 0.0 0.0 0.00 0.82 0.82 99 1019.8
20260903012455 65 205 0.0 0.0 0.00 0.82 0.82 99 1019.9
20260903011954 65 205 0.0 0.0 0.00 0.82 0.82 99 1019.9
20260903011449 65 209 0.0 0.0 0.00 0.82 0.82 99 1019.9
20260903010944 65 208 0.0 0.0 0.00 0.82 0.82 99 1020.0
20260903010439 65 205 0.0 0.0 0.00 0.82 0.82 99 1020.0
20260903005937 65 206 0.0 0.0 0.00 0.82 0.82 99 1020.2
20260903005433 65 206 0.0 0.0 0.00 0.82 0.82 99 1020.1
20260903004929 65 206 0.0 0.0 0.00 0.82 0.82 99 1019.8
20260903004424 65 204 0.0 0.0 0.00 0.82 0.82 99 1020.2
20260903003920 65 205 0.0 0.0 0.00 0.82 0.82 99 1020.1
20260903003419 65 204 0.0 0.0 0.00 0.82 0.82 99 1020.2
20260903002920 65 201 0.0 0.0 0.00 0.82 0.82 99 1020.3
20260903002415 65 205 0.0 0.0 0.00 0.82 0.82 99 1020.3
20260903001915 65 207 0.0 0.0 0.00 0.82 0.82 99 1019.8
20260903001409 65 207 0.0 0.0 0.00 0.82 0.82 99 1020.0
20260903000909 65 206 0.0 0.0 0.00 0.82 0.82 99 1019.9
20260903000404 65 204 0.0 0.0 0.00 0.82 0.82 99 1019.8
20260902235903 65 203 0.0 0.0 0.00 0.82 0.82 99 1019.4
20260902235358 65 211 0.0 0.0 0.00 0.82 0.82 99 1019.4
20260902234857 65 205 0.0 0.0 0.00 0.82 0.82 99 1019.1
20260902234352 65 203 0.0 0.0 0.00 0.82 0.82 99 1019.3
20260902233850 65 193 0.0 0.0 0.00 0.82 0.82 99 1019.5
20260902233345 65 199 0.0 0.0 0.00 0.82 0.82 99 1019.2
20260902232844 65 206 0.0 0.0 0.00 0.82 0.82 99 1019.5
20260902232339 65 203 0.0 0.0 0.00 0.82 0.82 99 1019.2
20260902231838 65 202 0.0 0.0 0.00 0.82 0.82 99 1019.6
20260902231333 65 202 0.0 0.0 0.00 0.82 0.82 99 1019.4
20260902230828 65 202 0.0 0.0 0.00 0.82 0.82 99 1019.7
20260902230328 65 195 0.0 0.0 0.00 0.82 0.82 99 1020.3
20260902225822 65 197 0.0 0.0 0.00 0.82 0.82 99 1020.0
20260902225317 65 198 0.0 0.0 0.00 0.82 0.82 99 1019.9
20260902224815 65 195 0.0 0.0 0.00 0.82 0.82 99 1020.0
20260902224310 65 183 0.0 1.0 0.00 0.82 0.82 99 1020.3
20260902223808 65 192 0.0 0.0 0.00 0.82 0.82 99 1020.6
20260902223302 65 194 0.0 1.0 0.00 0.82 0.82 99 1020.5
20260902222801 65 198 0.0 0.0 0.00 0.82 0.82 99 1020.5
20260902222300 65 184 0.0 0.0 0.00 0.82 0.82 99 1020.6
20260902221755 65 199 0.0 1.0 0.00 0.82 0.82 99 1020.5
20260902221254 65 185 0.0 0.0 0.00 0.82 0.82 99 1020.5
20260902220750 65 197 0.0 0.0 0.00 0.82 0.82 99 1020.8
20260902220249 65 186 0.0 0.0 0.00 0.82 0.82 99 1020.8
20260902215745 65 203 0.0 0.0 0.00 0.82 0.82 99 1020.8
20260902215240 65 197 0.0 0.0 0.00 0.82 0.82 99 1020.7
20260902214736 65 200 0.0 0.0 0.00 0.82 0.82 99 1020.6
20260902214234 65 202 0.0 0.0 0.00 0.82 0.82 99 1020.8
20260902213731 65 198 0.0 0.0 0.00 0.82 0.82 99 1020.3
20260902213230 65 187 0.0 0.0 0.00 0.82 0.82 99 1020.3
20260902212730 65 201 0.0 0.0 0.00 0.82 0.82 99 1020.1
20260902212227 65 192 0.0 0.0 0.00 0.82 0.82 99 1020.3
20260902211722 65 201 0.0 0.0 0.00 0.82 0.82 99 1020.3
20260902211218 65 202 0.0 0.0 0.00 0.82 0.82 99 1020.2
20260902210712 65 192 0.0 1.0 0.00 0.82 0.82 99 1020.1
20260902210207 65 202 0.0 0.0 0.00 0.82 0.82 99 1020.6
20260902205705 65 165 0.0 0.0 0.00 0.82 0.82 99 1020.1
20260902205201 65 200 0.0 0.0 0.00 0.82 0.82 99 1020.3
20260902204655 65 201 0.0 0.0 0.00 0.82 0.82 99 1020.5
20260902204150 65 200 0.0 0.0 0.00 0.82 0.82 99 1020.5
20260902203645 65 216 0.0 1.0 0.00 0.82 0.82 99 1020.2
20260902203140 65 204 0.0 0.0 0.00 0.82 0.82 99 1020.1
20260902202635 65 203 0.0 0.0 0.00 0.82 0.82 99 1020.5
20260902202132 65 200 0.0 0.0 0.00 0.82 0.82 99 1020.3
20260902201628 65 199 0.0 0.0 0.00 0.82 0.82 99 1020.0
20260902201127 65 202 0.0 0.0 0.00 0.82 0.82 99 1020.0
20260902200622 65 202 0.0 0.0 0.00 0.82 0.82 99 1020.2
20260902200118 65 202 0.0 0.0 0.00 0.82 0.82 99 1020.2
20260902195614 65 145 0.0 0.0 0.00 0.82 0.82 99 1020.3
20260902195113 65 189 0.0 0.0 0.00 0.82 0.82 99 1020.2
20260902194612 66 178 1.0 1.0 0.00 0.82 0.82 99 1020.3
20260902194107 66 191 0.0 1.0 0.00 0.82 0.82 99 1020.5
20260902193603 65 193 0.0 0.0 0.00 0.82 0.82 99 1020.6
20260902193103 65 196 1.0 1.0 0.00 0.82 0.82 99 1020.2
20260902192601 65 200 0.0 0.0 0.00 0.82 0.82 99 1020.6
20260902192100 65 202 0.0 0.0 0.07 0.82 0.82 99 1020.8
20260902191556 65 204 0.0 0.0 0.00 0.81 0.81 99 1020.7
20260902191050 65 197 0.0 0.0 0.00 0.81 0.81 99 1021.1
20260902190546 65 189 0.0 0.0 0.35 0.81 0.81 99 1021.3
20260902190041 65 195 0.0 0.0 1.87 0.80 0.80 99 1021.0
20260902185537 65 183 0.0 0.0 1.84 0.70 0.70 99 1021.1
20260902185032 65 195 0.0 0.0 0.78 0.45 0.45 99 1021.2
20260902184527 65 196 0.0 1.0 0.71 0.38 0.38 99 1021.3
20260902184022 65 179 0.0 0.0 0.61 0.32 0.32 99 1021.4
20260902183519 66 187 0.0 0.0 0.47 0.25 0.25 99 1021.6
20260902183015 66 219 1.0 1.0 0.83 0.22 0.22 99 1022.1
20260902182511 66 202 0.0 1.0 0.66 0.15 0.15 99 1022.0
20260902182006 66 184 1.0 1.0 0.28 0.07 0.07 98 1022.0
20260902181502 67 150 0.0 0.0 0.05 0.03 0.03 95 1022.0
20260902180957 67 208 0.0 1.0 0.00 0.02 0.02 94 1021.4
20260902180457 67 203 0.0 0.0 0.00 0.02 0.02 93 1020.9
20260902175952 67 200 0.0 0.0 0.00 0.02 0.02 93 1020.8
20260902175447 67 199 0.0 0.0 0.00 0.02 0.02 93 1021.1
20260902174943 68 200 0.0 0.0 0.00 0.02 0.02 92 1020.9
20260902174440 68 198 0.0 0.0 0.00 0.02 0.02 92 1021.1
20260902173935 68 198 0.0 1.0 0.00 0.02 0.02 92 1020.9
20260902173434 68 185 0.0 1.0 0.00 0.02 0.02 92 1021.1
20260902172929 68 202 0.0 0.0 0.00 0.02 0.02 93 1021.2
20260902172429 68 191 1.0 1.0 0.00 0.02 0.02 93 1020.9
20260902171924 68 191 0.0 0.0 0.00 0.02 0.02 93 1021.3
20260902171419 68 202 0.0 0.0 0.00 0.02 0.02 94 1021.2
20260902170915 67 200 0.0 0.0 0.00 0.02 0.02 94 1021.2